Regional Weather Roundup
Issued by NWS

Home | Current Version | Previous Version | Graphics & Text | Print | Product List | Glossary On
Versions: 1 2 3 4 5 6 7 8 9 10 11 12 13 14 15 16 17 18 19 20 21 22 23 24 25 26 27 28 29 30 31 32 33 34 35 36 37 38 39 40 41 42 43 44 45 46 47 48 49 50
000
ASUS43 KLMK 010502
RWRKY
KENTUCKY REGIONAL WEATHER ROUNDUP
NATIONAL WEATHER SERVICE LOUISVILLE KY
100 AM EDT MON SEP 01 2014

NOTE "FAIR" INDICATES FEW OR NO CLOUDS BELOW 12,000 FEET
WITH NO SIGNIFICANT WEATHER AND/OR OBSTRUCTIONS TO VISIBILITY.

KYZ001>023-026-027-061>063-070>075-010600-
WESTERN AND SOUTH CENTRAL KENTUCKY

CITY           SKY/WX    TMP DP  RH WIND       PRES   REMARKS
PADUCAH        PTCLDY    77  73  87 S5        29.96R
HENDERSON      CLEAR     75  70  83 S8        29.96S
OWENSBORO      NOT AVBL
HOPKINSVILLE   CLEAR     74  74 100 S6        30.01S
BOWLING GREEN  CLEAR     75  71  87 SW7       30.02S
GLASGOW        CLEAR     73  73 100 S3        30.03S
$$

KYZ024-025-028>034-038-045-046-053-010600-
NORTH CENTRAL KENTUCKY

CITY           SKY/WX    TMP DP  RH WIND       PRES   REMARKS
LOUISVILLE/SDF MOCLDY    76  72  87 S7        29.99S
LOUISVILLE/LOU MOCLDY    74  73  97 S3        30.00S
FORT KNOX      CLEAR     72  72 100 S1        30.00R FOG
$$

KYZ035>037-039>044-047>052-055>060-089>105-010600-
NORTHEAST KENTUCKY

CITY           SKY/WX    TMP DP  RH WIND       PRES   REMARKS
LEXINGTON      MOCLDY    74  71  91 S7        30.03S
COVINGTON      PTCLDY    71  69  93 S5        30.00S
FRANKFORT      CLOUDY    73  72  96 S6        30.01S
$$

KYZ054-064>069-076>088-106>120-010600-
SOUTHEAST KENTUCKY

CITY           SKY/WX    TMP DP  RH WIND       PRES   REMARKS
JACKSON        MOCLDY    71  69  93 CALM      30.08S FOG
LONDON         MOCLDY    73  68  84 S5        30.08F
SOMERSET       PTCLDY    72  72 100 CALM      30.07F
MIDDLESBORO    PTCLDY    69  69 100 CALM      30.11S
MONTICELLO     PTCLDY    73  71  93 SW6       30.08S
$$




USA.gov is the U.S. government's official web portal to all federal, state and local government web resources and services.